Weather History for Ottumwa, IA

Change the Weather History Date:

Wednesday, October 24, 2012

  Actual Average Record
Temperature  
Mean Temperature 73 °F 50 °F  
Max Temperature 81 °F 60 °F 85 °F (1940)
Min Temperature 65 °F 39 °F 20 °F (2006)
Degree Days  
Heating Degree Days 0 16  
Month to date heating degree days 274 283  
Since 1 July heating degree days 414 404  
Cooling Degree Days 8 0  
Month to date cooling degree days 15 9  
Year to date cooling degree days 1235 936  
Growing Degree Days 23 (Base 50)    
Moisture  
Dew Point 64 °F    
Average Humidity 73    
Maximum Humidity 87    
Minimum Humidity 58    
Precipitation  
Precipitation 0.00 in 0.09 in 1.05 in (1967)
Month to date precipitation 4.38 2.21  
Year to date precipitation 23.64 32.70  
Sea Level Pressure  
Sea Level Pressure 29.77 in    
Wind  
Wind Speed 15 mph (South)    
Max Wind Speed 25 mph    
Max Gust Speed 31 mph    
Visibility 10 miles    
Events      
T = Trace of Precipitation, MM = Missing Value Source: NWS Daily Summary

Daily Weather History Graph

Daily Weather History Graph

Search for Another Location

Airport:

Trip Planner

Search our weather history database for the weather conditions in past years. The results will help you decide how hot, cold, wet, or windy it might be!

Date:

Astronomy

Oct. 24, 2012 Rise Set
Actual Time 7:32 AM CDT 6:15 PM CDT
Civil Twilight 7:03 AM CDT 6:43 PM CDT
Nautical Twilight 6:31 AM CDT 7:15 PM CDT
Astronomical Twilight 5:59 AM CDT 7:47 PM CDT
Moon 3:33 PM CDT (10/24) 2:25 AM CDT (10/24)
Length of Visible Light 11h 39m
Length of Day
10h 43m
Waxing Gibbous, 76% of the Moon is Illuminated
Oct 24
Waxing Gibbous
Oct 29
Full
Nov 6
Last Quarter
Nov 13
New
Nov 20
First Quarter

Hourly Weather History & Observations

Time (CDT) Temp. Heat Index Dew Point Humidity Pressure Visibility Wind Dir Wind Speed Gust Speed Precip Events Conditions
12:53 AM 68.0 °F - 63.0 °F 84% 29.79 in 10.0 mi South 10.4 mph - N/A   Clear
1:53 AM 66.9 °F - 63.0 °F 87% 29.80 in 10.0 mi SSW 10.4 mph - N/A   Clear
2:10 AM 68.0 °F - 62.6 °F 83% 29.81 in 10.0 mi SSW 10.4 mph - N/A   Mostly Cloudy
2:53 AM 68.0 °F - 64.0 °F 87% 29.80 in 10.0 mi SSW 9.2 mph - N/A   Overcast
3:21 AM 68.0 °F - 62.6 °F 83% 29.81 in 10.0 mi SSW 10.4 mph - N/A   Scattered Clouds
3:53 AM 66.9 °F - 63.0 °F 87% 29.80 in 10.0 mi SSW 9.2 mph - N/A   Clear
4:53 AM 66.0 °F - 63.0 °F 90% 29.80 in 10.0 mi South 9.2 mph - N/A   Clear
5:53 AM 66.0 °F - 63.0 °F 90% 29.81 in 10.0 mi South 8.1 mph - N/A   Scattered Clouds
6:53 AM 66.0 °F - 63.0 °F 90% 29.81 in 10.0 mi SSE 8.1 mph - N/A   Scattered Clouds
7:53 AM 66.0 °F - 63.0 °F 90% 29.81 in 9.0 mi South 10.4 mph - N/A   Partly Cloudy
8:53 AM 70.0 °F - 64.9 °F 84% 29.82 in 10.0 mi South 17.3 mph - N/A   Mostly Cloudy
9:53 AM 71.1 °F - 64.0 °F 78% 29.81 in 10.0 mi South 16.1 mph 23.0 mph N/A   Overcast
10:53 AM 73.0 °F - 64.0 °F 73% 29.82 in 10.0 mi South 20.7 mph - N/A   Overcast
11:53 AM 72.0 °F - 63.0 °F 73% 29.81 in 10.0 mi SSW 17.3 mph 23.0 mph N/A   Overcast
12:27 PM 73.4 °F - 64.4 °F 73% 29.79 in 10.0 mi South 18.4 mph - N/A   Scattered Clouds
12:53 PM 75.9 °F - 64.0 °F 67% 29.76 in 10.0 mi South 20.7 mph 29.9 mph N/A   Clear
1:53 PM 79.0 °F - 64.9 °F 62% 29.74 in 10.0 mi South 18.4 mph - 0.00 in   Clear
2:53 PM 79.0 °F - 64.9 °F 62% 29.73 in 10.0 mi South 15.0 mph - N/A   Mostly Cloudy
3:53 PM 78.8 °F - 64.4 °F 61% 29.74 in 10.0 mi South 21.9 mph 28.8 mph N/A   Scattered Clouds
4:53 PM 80.1 °F 81.9 °F 64.9 °F 60% 29.71 in 10.0 mi South 20.7 mph 27.6 mph N/A   Partly Cloudy
5:53 PM 77.0 °F - 64.0 °F 64% 29.71 in 10.0 mi South 13.8 mph 24.2 mph N/A   Clear
6:53 PM 75.0 °F - 64.0 °F 69% 29.71 in 10.0 mi South 13.8 mph - N/A   Clear
7:53 PM 75.0 °F - 64.0 °F 69% 29.72 in 10.0 mi South 17.3 mph - N/A   Clear
8:53 PM 75.0 °F - 63.0 °F 66% 29.71 in 10.0 mi South 17.3 mph - N/A   Clear
9:53 PM 73.9 °F - 63.0 °F 68% 29.70 in 10.0 mi South 15.0 mph - N/A   Clear
10:53 PM 73.0 °F - 62.1 °F 68% 29.69 in 10.0 mi South 13.8 mph - N/A   Clear
11:53 PM 72.0 °F - 62.1 °F 71% 29.69 in 10.0 mi South 12.7 mph - N/A   Clear